When you browse on this site, cookies collect data to enhance your experience and personalize the content and advertising you see.
Visit our Privacy Policy to learn more. By continuing to use the site, you agree to this use of cookies and data.
  • In Lithuania
  • List of Countries
  • For 7 days
  • Water Temperature
  • Weather Map
  • Weather Widgets
  • user-avatar
    Login

    Hourly Weather Innsbruck

    Today, 21 October, Monday

    Time Temperature Precipitation Wind Pressure Humidity
    00:00 +4°C° 0 mm 3 mps 596 mmHg 89%
    01:00 +4°C° 0 mm 3 mps 596 mmHg 89%
    02:00 +4°C° 0 mm 3 mps 596 mmHg 90%
    03:00 +4°C° 0 mm 3 mps 596 mmHg 90%
    04:00 +4°C° 0 mm 3 mps 596 mmHg 91%
    05:00 +4°C° 0 mm 3 mps 596 mmHg 91%
    06:00 +4°C° 0 mm 3 mps 597 mmHg 90%
    07:00 +4°C° 0 mm 3 mps 598 mmHg 90%
    08:00 +6°C° 0.1 mm 2 mps 598 mmHg 86%
    09:00 +7°C° 0.1 mm 2 mps 599 mmHg 82%
    10:00 +9°C° 0.1 mm 2 mps 600 mmHg 78%
    11:00 +9°C° 0 mm 2 mps 600 mmHg 76%
    12:00 +10°C° 0 mm 2 mps 601 mmHg 73%
    13:00 +12°C° 0 mm 2 mps 601 mmHg 71%
    14:00 +10°C° 0 mm 2 mps 601 mmHg 74%
    15:00 +10°C° 0 mm 2 mps 601 mmHg 78%
    16:00 +9°C° 0 mm 2 mps 600 mmHg 81%
    17:00 +8°C° 0 mm 2 mps 600 mmHg 85%
    18:00 +7°C° 0 mm 2 mps 600 mmHg 89%
    19:00 +6°C° 0 mm 2 mps 600 mmHg 92%
    20:00 +6°C° 0 mm 2 mps 600 mmHg 92%
    21:00 +6°C° 0 mm 2 mps 600 mmHg 92%
    22:00 +6°C° 0 mm 2 mps 600 mmHg 92%
    23:00 +5°C° 0 mm 2 mps 600 mmHg 92%

    Tomorrow, 22 October, Tuesday

    Time Temperature Precipitation Wind Pressure Humidity
    00:00 +5°C° 0 mm 2 mps 600 mmHg 93%
    01:00 +5°C° 0 mm 2 mps 600 mmHg 93%
    02:00 +5°C° 0 mm 2 mps 600 mmHg 93%
    03:00 +5°C° 0 mm 1 mps 600 mmHg 93%
    04:00 +5°C° 0 mm 1 mps 600 mmHg 92%
    05:00 +5°C° 0 mm 1 mps 600 mmHg 91%
    06:00 +5°C° 0 mm 1 mps 600 mmHg 90%
    07:00 +4°C° 0 mm 1 mps 599 mmHg 89%
    08:00 +7°C° 0 mm 1 mps 600 mmHg 82%
    09:00 +9°C° 0 mm 1 mps 601 mmHg 74%
    10:00 +11°C° 0 mm 1 mps 602 mmHg 67%
    11:00 +12°C° 0 mm 1 mps 603 mmHg 63%
    12:00 +13°C° 0 mm 1 mps 603 mmHg 60%
    13:00 +14°C° 0 mm 2 mps 603 mmHg 57%
    14:00 +13°C° 0 mm 2 mps 603 mmHg 62%
    15:00 +12°C° 0 mm 1 mps 602 mmHg 67%
    16:00 +12°C° 0 mm 1 mps 602 mmHg 72%
    17:00 +9°C° 0 mm 2 mps 601 mmHg 74%
    18:00 +7°C° 0 mm 2 mps 600 mmHg 77%
    19:00 +6°C° 0 mm 2 mps 600 mmHg 80%
    20:00 +5°C° 0 mm 2 mps 600 mmHg 78%
    21:00 +5°C° 0 mm 2 mps 599 mmHg 77%
    22:00 +4°C° 0 mm 3 mps 599 mmHg 76%
    23:00 +4°C° 0 mm 3 mps 599 mmHg 75%

    Day after tomorrow, 23 October, Wednesday

    Time Temperature Precipitation Wind Pressure Humidity
    00:00 +4°C° 0 mm 3 mps 599 mmHg 74%
    01:00 +3°C° 0 mm 3 mps 599 mmHg 73%
    02:00 +3°C° 0 mm 3 mps 598 mmHg 71%
    03:00 +3°C° 0 mm 3 mps 598 mmHg 70%
    04:00 +3°C° 0 mm 3 mps 598 mmHg 68%
    05:00 +3°C° 0 mm 3 mps 597 mmHg 67%
    06:00 +3°C° 0 mm 3 mps 597 mmHg 65%
    07:00 +3°C° 0 mm 3 mps 597 mmHg 63%
    08:00 +5°C° 0 mm 3 mps 598 mmHg 58%
    09:00 +9°C° 0 mm 3 mps 599 mmHg 52%
    10:00 +11°C° 0 mm 3 mps 600 mmHg 47%
    11:00 +12°C° 0 mm 3 mps 600 mmHg 44%
    12:00 +13°C° 0 mm 3 mps 600 mmHg 40%
    13:00 +14°C° 0 mm 3 mps 600 mmHg 37%
    14:00 +13°C° 0 mm 3 mps 600 mmHg 43%
    15:00 +11°C° 0 mm 3 mps 599 mmHg 49%
    16:00 +10°C° 0 mm 3 mps 598 mmHg 55%
    17:00 +8°C° 0 mm 3 mps 597 mmHg 58%
    18:00 +7°C° 0 mm 3 mps 596 mmHg 61%
    19:00 +4°C° 0 mm 4 mps 595 mmHg 64%
    20:00 +4°C° 0 mm 4 mps 595 mmHg 65%
    21:00 +4°C° 0 mm 4 mps 595 mmHg 66%
    22:00 +3°C° 0 mm 4 mps 595 mmHg 68%
    23:00 +3°C° 0 mm 4 mps 595 mmHg 69%

    24 October, Thursday

    Time Temperature Precipitation Wind Pressure Humidity
    00:00 +3°C° 0 mm 4 mps 595 mmHg 70%
    01:00 +3°C° 0 mm 4 mps 595 mmHg 71%
    02:00 +3°C° 0 mm 4 mps 595 mmHg 70%
    03:00 +4°C° 0 mm 4 mps 595 mmHg 69%
    04:00 +4°C° 0 mm 3 mps 595 mmHg 68%
    05:00 +4°C° 0 mm 3 mps 595 mmHg 66%
    06:00 +4°C° 0 mm 3 mps 595 mmHg 65%
    07:00 +4°C° 0 mm 3 mps 595 mmHg 64%
    08:00 +5°C° 0 mm 3 mps 595 mmHg 60%
    09:00 +8°C° 0 mm 3 mps 596 mmHg 55%
    10:00 +10°C° 0 mm 2 mps 597 mmHg 51%
    11:00 +12°C° 0 mm 2 mps 597 mmHg 50%
    12:00 +12°C° 0 mm 2 mps 598 mmHg 50%
    13:00 +12°C° 0 mm 3 mps 598 mmHg 50%
    14:00 +12°C° 0.1 mm 2 mps 597 mmHg 57%
    15:00 +10°C° 0.1 mm 2 mps 597 mmHg 64%
    16:00 +8°C° 0.1 mm 2 mps 596 mmHg 71%
    17:00 +7°C° 0 mm 2 mps 596 mmHg 76%
    18:00 +6°C° 0 mm 2 mps 595 mmHg 82%
    19:00 +4°C° 0 mm 2 mps 595 mmHg 88%
    20:00 +4°C° 0 mm 2 mps 595 mmHg 89%
    21:00 +5°C° 0 mm 1 mps 595 mmHg 89%
    22:00 +4°C° 0 mm 1 mps 595 mmHg 90%
    23:00 +4°C° 0 mm 1 mps 595 mmHg 90%

    25 October, Friday

    Time Temperature Precipitation Wind Pressure Humidity
    00:00 +3°C° 0 mm 0 mps 595 mmHg 91%
    01:00 +3°C° 0 mm 0 mps 595 mmHg 91%
    02:00 +3°C° 0 mm 0 mps 595 mmHg 91%
    03:00 +3°C° 0 mm 0 mps 595 mmHg 92%
    04:00 +2°C° 0 mm 0 mps 595 mmHg 92%
    05:00 +2°C° 0 mm 0 mps 595 mmHg 92%
    06:00 +2°C° 0 mm 0 mps 595 mmHg 92%
    07:00 +2°C° 0 mm 0 mps 596 mmHg 92%
    08:00 +4°C° 0 mm 0 mps 597 mmHg 86%
    09:00 +6°C° 0 mm 0 mps 598 mmHg 80%
    10:00 +9°C° 0 mm 1 mps 599 mmHg 73%
    11:00 +9°C° 0 mm 1 mps 599 mmHg 71%
    12:00 +10°C° 0 mm 1 mps 600 mmHg 69%
    13:00 +11°C° 0 mm 1 mps 600 mmHg 67%
    14:00 +10°C° 0 mm 1 mps 599 mmHg 70%
    15:00 +10°C° 0 mm 1 mps 599 mmHg 73%
    16:00 +10°C° 0 mm 1 mps 599 mmHg 76%
    17:00 +8°C° 0 mm 1 mps 598 mmHg 81%
    18:00 +6°C° 0 mm 1 mps 598 mmHg 87%
    19:00 +5°C° 0 mm 1 mps 597 mmHg 92%
    20:00 +5°C° 0 mm 1 mps 597 mmHg 89%
    21:00 +5°C° 0 mm 1 mps 598 mmHg 87%
    22:00 +4°C° 0 mm 2 mps 598 mmHg 84%
    23:00 +4°C° 0 mm 2 mps 598 mmHg 83%

    26 October, Saturday

    Time Temperature Precipitation Wind Pressure Humidity
    00:00 +4°C° 0 mm 2 mps 597 mmHg 83%
    01:00 +4°C° 0 mm 2 mps 597 mmHg 82%
    02:00 +3°C° 0 mm 2 mps 597 mmHg 82%
    03:00 +4°C° 0 mm 1 mps 597 mmHg 81%
    04:00 +4°C° 0 mm 1 mps 597 mmHg 81%
    05:00 +4°C° 0 mm 1 mps 597 mmHg 81%
    06:00 +3°C° 0 mm 1 mps 597 mmHg 81%
    07:00 +3°C° 0 mm 1 mps 597 mmHg 81%
    08:00 +5°C° 0 mm 0 mps 598 mmHg 72%
    09:00 +8°C° 0 mm 0 mps 600 mmHg 64%
    10:00 +10°C° 0 mm 0 mps 601 mmHg 56%
    11:00 +11°C° 0 mm 0 mps 602 mmHg 54%
    12:00 +13°C° 0 mm 1 mps 602 mmHg 52%
    13:00 +14°C° 0 mm 1 mps 602 mmHg 51%
    14:00 +13°C° 0 mm 1 mps 602 mmHg 57%
    15:00 +12°C° 0 mm 1 mps 601 mmHg 63%
    16:00 +11°C° 0 mm 1 mps 601 mmHg 69%
    17:00 +9°C° 0 mm 1 mps 600 mmHg 75%
    18:00 +7°C° 0 mm 1 mps 599 mmHg 81%
    19:00 +5°C° 0 mm 1 mps 599 mmHg 88%
    20:00 +5°C° 0 mm 1 mps 599 mmHg 86%
    21:00 +5°C° 0 mm 1 mps 599 mmHg 84%
    22:00 +5°C° 0 mm 1 mps 599 mmHg 83%
    23:00 +5°C° 0 mm 1 mps 599 mmHg 81%
    Show more